Tracking 30743 objects as of 20-Jun-2025
HD Live streaming from Space Station
objects crossing your sky now

STARLINK-31663

Track STARLINK-31663 now!
10-day predictions
STARLINK-31663 is classified as:


NORAD ID: 59576
Int'l Code: 2024-076N
Perigee: 489.5 km
Apogee: 490.9 km
Inclination: 43.0 °
Period: 94.3 minutes
Semi major axis: 6861 km
RCS: Unknown
Launch date: April 23, 2024
Source: United States (US)
Launch site: AIR FORCE EASTERN TEST RANGE (AFETR)
Your satellite tracking list
Your tracking list is empty




NASA's NSSDC Master Catalog

Two Line Element Set (TLE):
1 59576U 24076N   25170.40504364 -.00000220  00000-0  15412-5 0  9995
2 59576  43.0029  56.1550 0000956 292.1573  67.9178 15.27575285 66235
Source of the keplerian elements: AFSPC